Volver al catálogo

STARLINK-38080

ActivoComunicacionesSSO
NORAD 69989·PAYLOAD·🇺🇸 United States

Lanzado Jul 11, 2026 desde Vandenberg Space Force Base

Loading…

Próximos Pases (próximas 24 horas)

TLE

ActualizadoSource: CelesTrak SupGP

Época: Sep 14, 2026, 22:36 UTC

1 69989C 26159Q   26257.94215278 -.02572100  00000+0 -41561-1 0  2577
2 69989  97.2849  99.7166 0002061  90.7554  43.2381 15.54204708    17

Sigue STARLINK-38080 en tiempo real con AllMySat

Download on the App Store